Location: Township of Marena
(38.1747°N, 99.6798°W)
Time: 10:45:05
(UTC+00:00)

Cosmos 1697 Rocket - Pass Details

Date: 26 October 2020
Orbit: 831 x 845 km, 71.0° (Epoch: 24 November)

Event Time Altitude Azimuth Distance (km) Brightness Sun altitude
Rises 11:33:24 0° 336° (NNW) 3,402 5.6 -17.4°
Reaches altitude 10° 11:35:51 10° 336° (NNW) 2,466 4.9 -16.9°
Maximum altitude 11:41:31 85° 250° (WSW) 851 2.6 -15.8°
Drops below altitude 10° 11:47:10 10° 162° (SSE) 2,455 5.4 -14.7°
Sets 11:49:36 0° 161° (SSE) 3,387 6.2 -14.2°
